Weather History for PAEG - July, 2013

Change the Weather History Date:

Friday, July 26, 2013

  Actual Average Record
Temperature  
Mean Temperature 54 °F -  
Max Temperature 75 °F - - ()
Min Temperature 36 °F - - ()
Degree Days  
Heating Degree Days 11    
Growing Degree Days 4 (Base 50)    
Moisture  
Dew Point 45 °F    
Average Humidity 64    
Maximum Humidity 93    
Minimum Humidity 40    
Precipitation  
Precipitation 0.00 in - - ()
Sea Level Pressure  
Sea Level Pressure 30.10 in    
Wind  
Wind Speed 1 mph (NE)    
Max Wind Speed 7 mph    
Max Gust Speed -    
Visibility 10 miles    
Events      
T = Trace of Precipitation, MM = Missing Value Source: NWS Daily Summary

Daily Weather History Graph

Daily Weather History Graph

Search for Another Location

Airport or City:

Trip Planner

Search our weather history database for the weather conditions in past years. The results will help you decide how hot, cold, wet, or windy it might be!

Date:

Astronomy

Jul. 26, 2013 Rise Set
Actual Time 4:05 AM AKDT 10:53 PM AKDT
Civil Twilight 2:03 AM AKDT 1:10 AM AKDT
Nautical Twilight Sun does not rise Sun does not rise
Astronomical Twilight Sun does not rise Sun does not rise
Moon 10:37 PM AKDT (7/26) 11:17 AM AKDT (7/26)
Length of Visible Light 23h 07m
Length of Day
18h 48m
Waning Gibbous, 79% of the Moon is Illuminated
Jul 26
Waning Gibbous
Jul 29
Last Quarter
Aug 6
New
Aug 14
First Quarter
Aug 20
Full

Hourly Weather History & Observations

Time (AKDT) Temp. Windchill Dew Point Humidity Pressure Visibility Wind Dir Wind Speed Gust Speed Precip Events Conditions
12:53 AM 44.1 °F - 39.9 °F 85% 30.05 in 10.0 mi Calm Calm - N/A   Clear
1:53 AM 39.9 °F 37.8 °F 37.0 °F 89% 30.07 in 10.0 mi South 3.5 mph - N/A   Clear
2:53 AM 37.0 °F 34.5 °F 35.1 °F 93% 30.08 in 10.0 mi SSE 3.5 mph - N/A   Clear
3:53 AM 36.0 °F - 34.0 °F 93% 30.09 in 10.0 mi Calm Calm - N/A   Clear
4:53 AM 36.0 °F - 34.0 °F 93% 30.11 in 10.0 mi Calm Calm - N/A   Clear
5:53 AM 39.9 °F - 37.0 °F 89% 30.12 in 10.0 mi Calm Calm - N/A   Clear
6:53 AM 48.0 °F - 42.1 °F 80% 30.12 in 10.0 mi Calm Calm - N/A   Clear
7:53 AM 51.1 °F - 44.1 °F 77% 30.12 in 10.0 mi Calm Calm - N/A   Clear
8:53 AM 55.9 °F - 45.0 °F 67% 30.12 in 10.0 mi Calm Calm - N/A   Clear
9:53 AM 61.0 °F - 46.0 °F 58% 30.12 in 10.0 mi North 4.6 mph - N/A   Clear
10:53 AM 64.9 °F - 46.9 °F 52% 30.11 in 10.0 mi NE 3.5 mph - N/A   Mostly Cloudy
11:53 AM 64.9 °F - 48.0 °F 54% 30.11 in 10.0 mi Calm Calm - N/A   Overcast
12:53 PM 68.0 °F - 48.0 °F 49% 30.10 in 10.0 mi Calm Calm - N/A   Clear
1:53 PM 69.1 °F - 48.0 °F 47% 30.10 in 10.0 mi Calm Calm - N/A   Mostly Cloudy
2:53 PM 69.1 °F - 50.0 °F 51% 30.10 in 10.0 mi Calm Calm - N/A   Mostly Cloudy
3:53 PM 71.1 °F - 48.9 °F 45% 30.09 in 10.0 mi Calm Calm - N/A   Mostly Cloudy
4:53 PM 72.0 °F - 48.9 °F 44% 30.09 in 10.0 mi NE 4.6 mph - N/A   Clear
5:53 PM 72.0 °F - 46.0 °F 40% 30.09 in 10.0 mi Calm Calm - N/A   Overcast
6:53 PM 71.1 °F - 48.0 °F 44% 30.09 in 10.0 mi NNE 3.5 mph - N/A   Overcast
7:53 PM 69.1 °F - 51.1 °F 53% 30.09 in 10.0 mi Calm Calm - N/A   Overcast
8:53 PM 68.0 °F - 46.9 °F 47% 30.10 in 10.0 mi North 6.9 mph - N/A   Overcast
9:53 PM 64.0 °F - 46.9 °F 54% 30.12 in 10.0 mi Calm Calm - N/A   Overcast
10:53 PM 62.1 °F - 48.9 °F 62% 30.13 in 10.0 mi Calm Calm - N/A   Overcast
11:53 PM 60.1 °F - 50.0 °F 69% 30.14 in 10.0 mi Calm Calm - N/A   Overcast